CFG4HA LEJR-EDDF

Flight info

Callsign CFG4HA
Flight time N/A
Altitude 34000
Route OXACA DCT PARKA/N0452F360 DCT TLD DCT SIE DCT BASIM DCT GASMO DCT VABAR DCT LPA DCT GOSVI DCT TOPTU DCT TOU DCT GAI DCT MEN DCT NINUN DCT LATAM DCT ETREK DCT LTP DCT SOPLO DCT OMASI DCT KINNI DCT SOSAL DCT KORED DCT BERSU DCT DITON/N0453F370 DCT LADOL/N0455F360 T163 EMPAX EMPAX5C
Aircraft A320/M-SDE3FGHIRWY/LB1

Departure

Time 2026-05-08 08:51
Airport Jerez Airport (LEJR)

Arrival

Time N/A
Airport Frankfurt Main Airport (EDDF)
Time Latitude Longitude Altitude Speed Heading
2026-05-08 08:18 36.74921 -6.06316 89 ft 0 kts 284°
2026-05-08 08:43 36.74921 -6.06314 94 ft 2 kts 283°
2026-05-08 08:43 36.74914 -6.06286 91 ft 4 kts 294°
2026-05-08 08:43 36.74900 -6.06259 91 ft 4 kts 328°
2026-05-08 08:44 36.74878 -6.06252 90 ft 3 kts 20°
2026-05-08 08:44 36.74870 -6.06256 92 ft 0 kts 23°
2026-05-08 08:46 36.74871 -6.06256 90 ft 1 kts 23°
2026-05-08 08:46 36.74895 -6.06243 90 ft 8 kts 21°
2026-05-08 08:46 36.74950 -6.06211 92 ft 8 kts 43°
2026-05-08 08:47 36.74955 -6.06135 91 ft 12 kts 109°
2026-05-08 08:47 36.74926 -6.06034 91 ft 13 kts 95°
2026-05-08 08:47 36.74977 -6.05980 94 ft 9 kts 22°
2026-05-08 08:47 36.75055 -6.05941 95 ft 15 kts 21°
2026-05-08 08:48 36.75151 -6.05895 94 ft 14 kts 21°
2026-05-08 08:48 36.75229 -6.05857 96 ft 11 kts 21°
2026-05-08 08:48 36.75322 -6.05811 97 ft 16 kts 21°
2026-05-08 08:48 36.75422 -6.05760 93 ft 16 kts 20°
2026-05-08 08:49 36.75460 -6.05670 93 ft 12 kts 110°
2026-05-08 08:49 36.75457 -6.05658 93 ft 0 kts 111°
2026-05-08 08:49 36.75448 -6.05632 94 ft 11 kts 112°
2026-05-08 08:49 36.75404 -6.05554 94 ft 11 kts 174°
2026-05-08 08:50 36.75306 -6.05601 93 ft 28 kts 201°
2026-05-08 08:50 36.74876 -6.05810 97 ft 101 kts 201°
2026-05-08 08:50 36.74022 -6.06222 92 ft 158 kts 201°
2026-05-08 08:50 36.72971 -6.06745 648 ft 164 kts 200°
2026-05-08 08:51 36.71915 -6.07262 1440 ft 162 kts 199°
2026-05-08 08:51 36.70859 -6.07775 2114 ft 166 kts 199°
2026-05-08 08:51 36.69714 -6.08328 2422 ft 187 kts 199°
2026-05-08 08:51 36.68447 -6.08940 2710 ft 207 kts 201°
2026-05-08 08:52 36.67046 -6.09616 3001 ft 227 kts 200°
2026-05-08 08:52 36.65498 -6.10365 3400 ft 248 kts 201°
2026-05-08 08:52 36.63864 -6.11159 4162 ft 255 kts 201°
2026-05-08 08:52 36.62203 -6.11969 4995 ft 258 kts 201°
2026-05-08 08:53 36.60519 -6.12791 5808 ft 261 kts 201°
2026-05-08 08:53 36.58816 -6.13620 6632 ft 264 kts 201°
2026-05-08 08:53 36.57157 -6.14592 7439 ft 265 kts 216°
2026-05-08 08:53 36.55919 -6.16275 8248 ft 267 kts 239°
2026-05-08 08:54 36.55323 -6.18459 9104 ft 271 kts 261°
2026-05-08 08:54 36.55470 -6.20810 9928 ft 279 kts 283°
2026-05-08 08:54 36.56402 -6.22957 10671 ft 291 kts 307°
2026-05-08 08:54 36.58055 -6.24474 11369 ft 305 kts 333°
2026-05-08 08:55 36.60173 -6.24949 12036 ft 320 kts 356°
2026-05-08 08:55 36.62484 -6.24856 12200 ft 344 kts 359°
2026-05-08 08:55 36.64952 -6.24690 12332 ft 366 kts 360°
2026-05-08 08:55 36.67564 -6.24483 12464 ft 386 kts
2026-05-08 08:56 36.70284 -6.24261 12870 ft 396 kts
2026-05-08 08:56 36.73048 -6.24042 13467 ft 400 kts 360°
2026-05-08 08:56 36.75835 -6.23836 14059 ft 403 kts 359°
2026-05-08 08:56 36.78647 -6.23640 14599 ft 406 kts 359°
2026-05-08 08:57 36.81484 -6.23451 15144 ft 410 kts 359°
2026-05-08 08:57 36.84343 -6.23237 15704 ft 413 kts 359°
2026-05-08 08:57 36.87222 -6.22956 16246 ft 417 kts
2026-05-08 08:57 36.90123 -6.22630 16788 ft 420 kts
2026-05-08 08:58 36.93047 -6.22279 17312 ft 424 kts
2026-05-08 08:58 36.95999 -6.21923 17830 ft 428 kts
2026-05-08 08:58 36.98936 -6.21583 18322 ft 431 kts 360°
2026-05-08 08:58 37.01933 -6.21250 18755 ft 434 kts 359°
2026-05-08 08:59 37.04952 -6.20923 19185 ft 437 kts 359°
2026-05-08 08:59 37.07987 -6.20598 19638 ft 440 kts 359°
2026-05-08 08:59 37.11043 -6.20266 20076 ft 442 kts 359°
2026-05-08 08:59 37.14115 -6.19932 20492 ft 444 kts 359°
2026-05-08 09:00 37.17202 -6.19597 20894 ft 447 kts 359°
2026-05-08 09:00 37.20318 -6.19257 21273 ft 450 kts 358°
2026-05-08 09:00 37.23449 -6.18909 21649 ft 453 kts 358°
2026-05-08 09:00 37.26595 -6.18558 22036 ft 455 kts 358°
2026-05-08 09:01 37.29761 -6.18206 22393 ft 458 kts 358°
2026-05-08 09:01 37.32945 -6.17853 22778 ft 460 kts 358°
2026-05-08 09:01 37.36142 -6.17347 23147 ft 468 kts
2026-05-08 09:01 37.39336 -6.16430 23493 ft 472 kts
2026-05-08 09:02 37.42543 -6.15486 23784 ft 475 kts
2026-05-08 09:02 37.45767 -6.14539 24061 ft 477 kts
2026-05-08 09:02 37.49003 -6.13588 24338 ft 479 kts
2026-05-08 09:02 37.52258 -6.12635 24611 ft 481 kts
2026-05-08 09:03 37.55526 -6.11678 24877 ft 483 kts
2026-05-08 09:03 37.58799 -6.10717 25188 ft 484 kts
2026-05-08 09:03 37.62042 -6.09762 25439 ft 486 kts
2026-05-08 09:03 37.65337 -6.08788 25663 ft 488 kts
2026-05-08 09:04 37.68649 -6.07807 25892 ft 490 kts
2026-05-08 09:04 37.71972 -6.06824 26116 ft 492 kts
2026-05-08 09:04 37.75312 -6.05835 26343 ft 494 kts
2026-05-08 09:04 37.78661 -6.04844 26544 ft 495 kts
2026-05-08 09:05 37.82021 -6.03851 26779 ft 497 kts
2026-05-08 09:05 37.85391 -6.02858 26994 ft 498 kts
2026-05-08 09:05 37.88772 -6.01863 27194 ft 500 kts
2026-05-08 09:05 37.92161 -6.00858 27460 ft 500 kts
2026-05-08 09:06 37.95477 -5.99428 27735 ft 509 kts 19°
2026-05-08 09:06 37.98578 -5.97185 28004 ft 515 kts 27°
2026-05-08 09:06 38.01610 -5.94761 28267 ft 516 kts 27°
2026-05-08 09:06 38.04645 -5.92329 28576 ft 516 kts 27°
2026-05-08 09:07 38.07671 -5.89902 28935 ft 513 kts 27°
2026-05-08 09:07 38.10686 -5.87483 29272 ft 512 kts 27°
2026-05-08 09:07 38.13655 -5.85105 29571 ft 511 kts 27°
2026-05-08 09:07 38.16658 -5.82700 29853 ft 511 kts 27°
2026-05-08 09:08 38.19666 -5.80291 30123 ft 510 kts 27°
2026-05-08 09:08 38.22668 -5.77890 30354 ft 510 kts 27°
2026-05-08 09:08 38.25673 -5.75482 30594 ft 510 kts 27°
2026-05-08 09:08 38.28671 -5.73073 30834 ft 510 kts 27°
2026-05-08 09:09 38.31667 -5.70659 31058 ft 510 kts 28°
2026-05-08 09:09 38.34664 -5.68239 31275 ft 510 kts 28°
2026-05-08 09:09 38.37658 -5.65820 31509 ft 510 kts 28°
2026-05-08 09:09 38.40654 -5.63404 31747 ft 509 kts 28°
2026-05-08 09:10 38.43645 -5.60991 31994 ft 509 kts 28°
2026-05-08 09:10 38.46635 -5.58578 32232 ft 509 kts 28°
2026-05-08 09:10 38.49621 -5.56160 32477 ft 508 kts 28°
2026-05-08 09:10 38.52605 -5.53738 32740 ft 508 kts 28°
2026-05-08 09:11 38.55582 -5.51321 33025 ft 506 kts 29°
2026-05-08 09:11 38.58549 -5.48908 33300 ft 505 kts 29°
2026-05-08 09:11 38.61511 -5.46496 33542 ft 504 kts 29°
2026-05-08 09:11 38.64470 -5.44087 33782 ft 504 kts 29°
2026-05-08 09:12 38.67426 -5.41680 33917 ft 505 kts 29°
2026-05-08 09:12 38.70395 -5.39263 33939 ft 506 kts 29°
2026-05-08 09:12 38.76308 -5.34447 33938 ft 507 kts 29°
2026-05-08 09:13 38.82258 -5.29571 33939 ft 508 kts 30°
2026-05-08 09:13 38.88205 -5.24687 33941 ft 508 kts 30°
2026-05-08 09:14 38.94158 -5.19808 33937 ft 508 kts 30°
2026-05-08 09:14 39.00107 -5.14910 33934 ft 508 kts 30°
2026-05-08 09:15 39.06047 -5.10007 33964 ft 506 kts 31°
2026-05-08 09:15 39.11964 -5.05116 33967 ft 505 kts 31°
2026-05-08 09:16 39.17873 -5.00231 33959 ft 504 kts 31°
2026-05-08 09:16 39.23762 -4.95342 33949 ft 503 kts 31°
2026-05-08 09:17 39.29611 -4.90475 33948 ft 503 kts 32°
2026-05-08 09:17 39.35498 -4.85567 33942 ft 504 kts 32°
2026-05-08 09:18 39.41384 -4.80643 33939 ft 504 kts 32°
2026-05-08 09:18 39.47274 -4.75718 33943 ft 504 kts 32°
2026-05-08 09:19 39.53162 -4.70784 33971 ft 504 kts 33°
2026-05-08 09:19 39.59041 -4.65845 33966 ft 503 kts 33°
2026-05-08 09:20 39.64912 -4.60903 33959 ft 503 kts 33°
2026-05-08 09:20 39.70785 -4.55951 33928 ft 503 kts 33°
2026-05-08 09:21 39.76655 -4.50992 33939 ft 504 kts 34°
2026-05-08 09:23 39.97218 -4.33642 33965 ft 505 kts 29°
2026-05-08 09:23 40.03560 -4.29722 33969 ft 504 kts 25°
2026-05-08 09:24 40.09914 -4.25852 33972 ft 504 kts 26°
2026-05-08 09:24 40.16260 -4.21969 33980 ft 503 kts 26°
2026-05-08 09:25 40.22604 -4.18089 33992 ft 503 kts 26°
2026-05-08 09:25 40.28938 -4.14202 33993 ft 503 kts 26°
2026-05-08 09:26 40.35220 -4.10326 33986 ft 502 kts 26°
2026-05-08 09:26 40.41541 -4.06427 33994 ft 502 kts 26°
2026-05-08 09:27 40.47859 -4.02540 33998 ft 500 kts 27°
2026-05-08 09:27 40.54153 -3.98655 33996 ft 499 kts 27°
2026-05-08 09:28 40.60434 -3.94765 34001 ft 499 kts 27°
2026-05-08 09:28 40.65644 -3.91526 33994 ft 498 kts 27°
2026-05-08 09:28 40.68777 -3.89574 34169 ft 498 kts 27°
2026-05-08 09:29 40.71905 -3.87623 34372 ft 497 kts 27°
2026-05-08 09:29 40.75026 -3.85674 34560 ft 496 kts 27°
2026-05-08 09:29 40.78144 -3.83726 34744 ft 496 kts 26°
2026-05-08 09:29 40.81267 -3.81776 34904 ft 496 kts 26°
2026-05-08 09:30 40.84387 -3.79827 35053 ft 496 kts 26°
2026-05-08 09:30 40.87503 -3.77877 35205 ft 495 kts 26°
2026-05-08 09:30 40.90618 -3.75922 35363 ft 495 kts 26°
2026-05-08 09:30 40.93725 -3.73972 35516 ft 495 kts 26°
2026-05-08 09:31 40.96839 -3.72020 35659 ft 495 kts 26°
2026-05-08 09:31 40.99946 -3.70070 35805 ft 494 kts 26°
2026-05-08 09:31 41.03053 -3.68114 35933 ft 495 kts 26°
2026-05-08 09:32 41.09267 -3.64199 35961 ft 493 kts 27°
2026-05-08 09:32 41.15373 -3.60162 35949 ft 488 kts 34°
2026-05-08 09:33 41.20923 -3.55007 35948 ft 487 kts 38°
2026-05-08 09:33 41.26425 -3.49747 35951 ft 487 kts 38°
2026-05-08 09:34 41.31883 -3.44514 35951 ft 487 kts 38°
2026-05-08 09:34 41.37372 -3.39250 35929 ft 486 kts 38°
2026-05-08 09:35 41.42860 -3.33987 35941 ft 486 kts 38°
2026-05-08 09:35 41.48346 -3.28712 35945 ft 486 kts 38°
2026-05-08 09:36 41.53822 -3.23414 35958 ft 486 kts 39°
2026-05-08 09:36 41.59294 -3.18117 35966 ft 486 kts 39°
2026-05-08 09:37 41.64768 -3.12824 35962 ft 485 kts 39°
2026-05-08 09:37 41.70235 -3.07530 35965 ft 485 kts 39°
2026-05-08 09:38 41.75696 -3.02218 35937 ft 485 kts 38°
2026-05-08 09:38 41.81123 -2.96924 35936 ft 486 kts 39°
2026-05-08 09:39 41.86600 -2.91577 35946 ft 487 kts 38°
2026-05-08 09:39 41.92077 -2.86221 35949 ft 487 kts 38°
2026-05-08 09:40 41.97551 -2.80842 35945 ft 488 kts 38°
2026-05-08 09:40 42.03020 -2.75442 35940 ft 488 kts 38°
2026-05-08 09:41 42.08500 -2.70041 35943 ft 488 kts 38°
2026-05-08 09:41 42.13976 -2.64631 35919 ft 488 kts 38°
2026-05-08 09:42 42.19453 -2.59210 35923 ft 489 kts 38°
2026-05-08 09:42 42.24935 -2.53775 35932 ft 489 kts 38°
2026-05-08 09:43 42.30367 -2.48362 35937 ft 488 kts 38°
2026-05-08 09:43 42.35834 -2.42908 35944 ft 488 kts 38°
2026-05-08 09:44 42.41234 -2.37354 35953 ft 486 kts 45°
2026-05-08 09:44 42.45431 -2.30334 35957 ft 477 kts 64°
2026-05-08 09:45 42.47822 -2.22089 35946 ft 468 kts 81°
2026-05-08 09:45 42.49259 -2.13496 35957 ft 468 kts 81°
2026-05-08 09:46 42.50684 -2.04895 35957 ft 468 kts 81°
2026-05-08 09:46 42.52099 -1.96288 35965 ft 468 kts 81°
2026-05-08 09:47 42.53507 -1.87670 35943 ft 468 kts 81°
2026-05-08 09:47 42.54913 -1.79038 35950 ft 469 kts 81°
2026-05-08 09:48 42.56320 -1.70387 35958 ft 470 kts 81°
2026-05-08 09:48 42.57716 -1.61723 35963 ft 470 kts 81°
2026-05-08 09:49 42.59106 -1.53045 35967 ft 471 kts 81°
2026-05-08 09:49 42.60485 -1.44413 35943 ft 472 kts 81°
2026-05-08 09:50 42.61867 -1.35684 35951 ft 473 kts 81°
2026-05-08 09:50 42.63249 -1.26936 35959 ft 474 kts 81°
2026-05-08 09:51 42.64631 -1.18171 35969 ft 475 kts 81°
2026-05-08 09:51 42.66007 -1.09402 35941 ft 475 kts 81°
2026-05-08 09:52 42.67377 -1.00606 35964 ft 477 kts 81°
2026-05-08 09:52 42.68742 -0.91786 35958 ft 477 kts 82°
2026-05-08 09:53 42.70095 -0.82956 35963 ft 478 kts 82°
2026-05-08 09:53 42.71436 -0.74163 35950 ft 478 kts 81°
2026-05-08 09:54 42.72787 -0.65296 35955 ft 479 kts 82°
2026-05-08 09:54 42.74130 -0.56419 35967 ft 480 kts 81°
2026-05-08 09:55 42.75472 -0.47515 35965 ft 480 kts 82°
2026-05-08 09:55 42.76812 -0.38606 35973 ft 481 kts 82°
2026-05-08 09:56 42.78140 -0.29693 35972 ft 481 kts 82°
2026-05-08 09:56 42.79913 -0.20907 35975 ft 485 kts 69°
2026-05-08 09:57 42.85613 -0.09501 35972 ft 489 kts 51°
2026-05-08 09:57 42.89926 -0.02330 35959 ft 490 kts 52°
2026-05-08 09:58 42.94232 0.04860 35946 ft 489 kts 51°
2026-05-08 09:58 42.98508 0.12018 35951 ft 490 kts 51°
2026-05-08 09:59 43.02815 0.19252 35951 ft 491 kts 51°
2026-05-08 09:59 43.07117 0.26491 35957 ft 490 kts 51°
2026-05-08 10:00 43.11418 0.33739 35949 ft 491 kts 51°
2026-05-08 10:00 43.15712 0.41000 35939 ft 491 kts 51°
2026-05-08 10:01 43.20008 0.48277 35937 ft 491 kts 51°
2026-05-08 10:01 43.24305 0.55565 35946 ft 492 kts 51°
2026-05-08 10:02 43.28570 0.62815 35946 ft 492 kts 51°
2026-05-08 10:02 43.32858 0.70126 35946 ft 492 kts 51°
2026-05-08 10:03 43.37139 0.77459 35941 ft 492 kts 50°
2026-05-08 10:03 43.41415 0.84806 35940 ft 492 kts 51°
2026-05-08 10:04 43.45689 0.92162 35958 ft 492 kts 50°
2026-05-08 10:04 43.49964 0.99528 35958 ft 492 kts 50°
2026-05-08 10:05 43.54236 1.06905 35963 ft 492 kts 50°
2026-05-08 10:05 43.58500 1.14286 35964 ft 492 kts 50°
2026-05-08 10:06 43.62756 1.21687 35980 ft 492 kts 50°
2026-05-08 10:06 43.67005 1.29093 35984 ft 492 kts 50°
2026-05-08 10:07 43.71194 1.36567 35984 ft 492 kts 51°
2026-05-08 10:07 43.75238 1.44200 35982 ft 492 kts 52°
2026-05-08 10:08 43.79228 1.51818 35979 ft 492 kts 52°
2026-05-08 10:08 43.83267 1.59454 35990 ft 492 kts 51°
2026-05-08 10:09 43.87316 1.67093 35985 ft 492 kts 51°
2026-05-08 10:09 43.91361 1.74732 35989 ft 492 kts 51°
2026-05-08 10:10 43.95400 1.82392 35985 ft 492 kts 52°
2026-05-08 10:10 43.99361 1.90134 35993 ft 492 kts 53°
2026-05-08 10:11 44.03220 1.97992 36010 ft 493 kts 53°
2026-05-08 10:11 44.07074 2.05869 36010 ft 492 kts 52°
2026-05-08 10:12 44.10957 2.13713 36001 ft 492 kts 52°
2026-05-08 10:12 44.14825 2.21499 36008 ft 492 kts 52°
2026-05-08 10:13 44.18710 2.29360 36023 ft 492 kts 52°
2026-05-08 10:13 44.22586 2.37232 36029 ft 493 kts 52°
2026-05-08 10:14 44.26450 2.45121 36030 ft 492 kts 52°
2026-05-08 10:14 44.30303 2.53018 36033 ft 492 kts 52°
2026-05-08 10:15 44.34152 2.60934 36030 ft 492 kts 52°